Temp
90 92 92 91 92 92 93 95 94 92 91 89 88 87 86 87 88 89 88 86 85 87
90 90 92 91 91 91 90 92 92 91 88 88 87 86 86 87 86 86 86 88 86 85
92 91 92 93 92 92 91 90 92 88 88 87 86 85 84 87 85 83 86 89 84 84
95 95 92 93 92 91 90 87 87 85 86 86 85 84 83 83 84 82 83 84 83 82
95 95 96 92 93 93 90 89 85 84 83 85 84 84 82 82 85 82 82 83 82 83
96 95 94 95 93 93 91 88 87 83 82 84 84 83 82 82 83 83 84 83 82 82
94 95 96 95 93 92 86 86 85 84 81 84 84 84 83 83 82 83 84 84 83 83
93 94 94 93 90 87 87 85 85 84 84 85 85 87 83 83 82 82 83 83 82 82
89 88 88 88 88 85 81 77 80 79 82 81 86 78 76 81 83 82 81 81 81 81
79 75 72 76 79 78 78 76 76 80 80 79 81 68 72 73 84 84 82 82 81 82
71 70 70 72 73 74 73 71 75 78 79 79 77 68 68 71 78 80 83 82 81 80
72 72 72 74 76 78 78 79 79 80 78 77 77 65 65 68 77 80 78 78 81 80
77 78 79 77 75 76 77 77 78 78 78 74 73 63 63 68 80 74 72 76 75 70
78 79 77 75 74 74 75 75 75 73 75 74 71 63 61 61 71 65 68 69 75 73
MSLP
1012.31 1012.35 1012.37 1012.47 1012.57 1012.59 1012.35 1012.12 1012.45 1013.09 1013.48 1013.68 1013.82 1014.06 1014.31 1014.35 1014.22 1013.78 1013.89 1014.01 1014.10 1013.57
1011.82 1012.05 1011.77 1012.04 1012.24 1012.51 1012.59 1012.62 1012.65 1013.15 1013.65 1013.83 1014.10 1014.32 1014.33 1014.20 1014.07 1014.26 1014.29 1013.94 1014.22 1014.22
1010.80 1011.23 1011.43 1011.50 1011.73 1011.97 1012.15 1012.66 1012.59 1013.36 1013.72 1013.99 1014.29 1014.43 1014.50 1013.99 1014.21 1014.50 1014.25 1013.98 1014.29 1014.51
1009.80 1010.21 1010.91 1010.98 1011.23 1011.59 1011.96 1012.58 1012.74 1013.27 1013.63 1013.88 1014.12 1014.32 1014.53 1014.45 1014.29 1014.56 1014.47 1014.45 1014.54 1014.63
1009.21 1009.45 1009.57 1010.32 1010.61 1011.02 1011.53 1012.16 1012.59 1012.96 1013.37 1013.56 1013.90 1014.25 1014.52 1014.36 1013.94 1014.27 1014.20 1014.35 1014.50 1014.49
1008.62 1009.05 1009.24 1009.28 1009.95 1010.30 1010.86 1011.62 1012.11 1012.71 1013.25 1013.51 1013.77 1013.75 1014.00 1014.27 1014.10 1014.19 1014.13 1014.10 1014.36 1014.32
1008.46 1008.44 1008.72 1009.05 1009.48 1010.06 1010.66 1011.56 1012.30 1012.57 1012.92 1013.20 1013.49 1013.72 1013.81 1013.76 1013.96 1014.10 1014.04 1014.22 1014.33 1014.39
1008.24 1008.44 1008.62 1008.85 1009.35 1009.83 1010.31 1010.82 1011.34 1012.02 1012.45 1012.88 1013.05 1013.00 1013.04 1013.38 1013.62 1013.69 1013.83 1014.05 1014.41 1014.59
1008.67 1009.07 1009.09 1009.40 1009.50 1009.83 1010.27 1010.11 1010.35 1010.02 1010.84 1012.06 1012.39 1012.01 1012.57 1013.04 1013.06 1013.37 1013.52 1013.65 1013.98 1014.37
1010.05 1010.56 1010.82 1010.88 1010.87 1010.91 1011.07 1011.72 1011.37 1011.05 1010.91 1011.13 1011.72 1012.30 1012.28 1012.90 1012.95 1012.90 1013.10 1013.40 1013.66 1013.84
1011.50 1011.72 1011.95 1011.87 1011.80 1011.82 1011.92 1011.74 1011.23 1010.82 1010.84 1010.91 1011.22 1011.84 1012.27 1012.72 1012.90 1013.10 1012.91 1013.05 1013.40 1013.98
1012.24 1012.25 1012.33 1012.17 1011.87 1011.33 1011.03 1010.74 1010.39 1010.17 1010.20 1010.55 1011.02 1011.75 1012.39 1012.89 1012.78 1012.70 1012.97 1013.19 1013.13 1013.46
1012.26 1012.07 1011.90 1012.03 1011.80 1011.42 1010.93 1010.22 1009.82 1009.58 1009.80 1010.21 1010.61 1011.33 1011.97 1012.60 1012.49 1012.86 1013.18 1013.17 1013.49 1013.22
1012.37 1012.03 1012.20 1012.27 1011.81 1011.22 1010.45 1009.80 1009.55 1009.59 1009.74 1010.25 1010.43 1011.33 1011.56 1012.78 1013.64 1013.74 1013.76 1014.21 1013.58 1013.24
Wind_Speed
11 9 9 9 8 5 7 3 3 5 5 4 4 4 3 6 6 3 5 2 4 6
11 12 11 9 9 7 5 6 5 3 6 4 4 4 4 6 2 2 4 3 3 5
13 12 12 10 9 6 6 8 2 4 6 4 4 4 4 4 4 3 4 5 3 4
14 12 12 12 11 10 9 3 4 5 6 6 6 5 4 6 1 3 4 4 2 2
13 12 13 12 12 10 11 8 7 6 7 8 7 6 6 7 5 6 6 6 3 4
13 13 13 12 12 11 10 10 9 8 7 8 8 8 8 7 6 7 6 6 6 4
12 13 13 12 9 10 7 8 7 6 6 8 9 9 9 9 8 7 7 5 5 4
9 10 9 8 8 7 8 8 8 7 9 10 10 10 12 10 9 8 7 5 4 8
2 6 7 7 8 9 9 7 8 12 13 11 11 11 12 9 10 9 8 7 7 6
12 12 12 9 5 6 3 4 7 9 9 10 11 6 12 10 9 9 9 7 5 6
9 8 6 6 5 6 8 9 10 11 12 12 9 13 11 11 8 8 7 6 4 5
4 4 4 7 11 10 12 13 14 13 13 12 11 15 11 9 10 11 5 4 5 3
4 3 6 10 12 12 13 14 12 12 11 13 13 14 16 12 7 6 1 2 4 10
8 6 9 9 9 12 12 11 11 10 8 7 6 8 11 5 4 4 4 4 2 3
Wind_Direction
219 225 225 209 251 244 252 261 206 180 250 224 247 254 258 256 243 208 267 301 321 310
211 230 224 228 214 221 250 259 238 214 224 226 243 260 277 250 245 303 269 251 238 281
212 212 227 236 234 245 227 233 195 188 230 229 249 257 250 253 196 254 272 248 69 295
206 212 210 224 219 222 240 235 212 186 216 209 222 220 230 287 84 224 238 291 193 227
220 222 210 209 226 215 204 217 214 188 208 203 207 211 223 225 187 213 201 201 185 220
217 219 233 222 212 211 204 211 212 182 207 214 217 202 206 224 232 222 224 202 205 222
226 232 223 225 211 219 175 202 237 243 216 218 219 218 219 205 214 228 218 222 222 232
237 237 240 224 204 191 193 192 200 214 226 228 228 223 206 209 209 207 230 215 223 229
235 248 257 239 236 216 186 218 183 192 196 222 233 220 174 212 205 206 218 220 216 198
44 42 30 2 338 327 198 279 273 262 228 221 226 210 161 167 241 209 213 222 249 254
55 49 24 355 327 281 277 277 270 261 249 238 231 167 171 171 198 257 225 211 225 265
44 19 326 306 289 282 271 261 256 255 239 236 222 169 179 188 197 222 204 204 203 229
22 355 356 352 328 312 297 283 282 266 250 233 224 171 172 184 208 175 171 220 195 137
24 353 24 347 337 323 307 286 277 277 250 243 215 156 126 72 69 58 36 342 351 113